ASTRA 1F

Last updated on Jan. 18, 2020, 4:38 a.m. UTC

1 23842U 96021A   20017.52507735  .00000135  00000-0  00000-0 0  9990
2 23842   0.0645 304.9980 0004726 353.8382  50.8753  1.00272233 28840
UTC
Height (km)
Latitude
Longitude
Inclination
Orbital Period
UTC large
Height (km)
Speed (km/s)
/
Latitude / Longitude
Inclination (degrees)
Orbital Period (minutes)
Azimuth
Elevation
Range (km)
Doppler Factor
iOS Compass Heading
iOS Angle

Next 30 passes for location: Hong Kong

Rise time Rise Azimuth (degrees) Set time Set Azimuth (degrees) Duration Max altitude (degrees)

No matching passes for this satellites